Stations météo

réclame
Mon MeteoGroup
Malmo/Sturup, Suède (2636): Température de l'air & dewpoint: 17.10.2018 12:00:00 - 23.10.2018 12:00:00 (CEST)Malmo/Sturup, Suède (2636): Vitesse du vent: 17.10.2018 12:00:00 - 23.10.2018 12:00:00 (CEST)Malmo/Sturup, Suède (2636): Direction du vent: 17.10.2018 12:00:00 - 23.10.2018 12:00:00 (CEST)Malmo/Sturup, Suède (2636): reduced air pressure: 17.10.2018 12:00:00 - 23.10.2018 12:00:00 (CEST)Malmo/Sturup, Suède (2636): visibility: 17.10.2018 12:00:00 - 23.10.2018 12:00:00 (CEST)
Date & Time tt [°C] td [°C] ff [km/h] ff [knt] dd ppp [hPa] vv [km]
23.10.2018 12:00:00 11,0 8,0 41 22 WNW - 10
23.10.2018 11:00:00 10,6 8,9 41 22 WNW 1000,4 10
23.10.2018 10:00:00 10,8 9,2 37 20 W 1000,3 8
23.10.2018 09:00:00 10,4 9,2 39 21 W 1001,5 8
23.10.2018 08:00:00 9,8 8,7 41 22 W 1002,8 8
23.10.2018 07:00:00 9,5 8,4 41 22 W 1004,3 8
23.10.2018 06:00:00 9,5 8,4 35 19 W 1006,6 5
23.10.2018 05:00:00 9,2 8,1 44 24 WSW 1008,6 5
23.10.2018 04:00:00 8,7 7,3 34 18 WSW 1010,7 7
23.10.2018 03:00:00 8,2 6,2 31 17 WSW 1013,7 9
23.10.2018 02:00:00 8,1 5,9 29 16 WSW 1016,4 10
23.10.2018 01:00:00 8,0 5,1 28 15 WSW 1018,5 10
23.10.2018 00:00:00 8,7 4,9 26 14 W 1020,3 10
22.10.2018 23:00:00 8,3 4,5 18 10 WSW 1021,4 10
22.10.2018 22:00:00 7,6 2,9 21 11 W 1022,5 10
22.10.2018 21:00:00 7,9 3,0 16 9 W 1023,2 10
22.10.2018 20:00:00 7,8 3,1 16 9 WSW 1023,7 10
22.10.2018 19:00:00 8,9 2,9 15 8 W 1024,2 10
22.10.2018 18:00:00 9,0 2,8 22 12 WNW 1024,6 10
22.10.2018 17:00:00 9,7 2,3 22 12 WNW 1024,5 10
22.10.2018 16:00:00 10,2 3,0 34 18 NW 1024,5 10
22.10.2018 15:00:00 10,3 2,9 35 19 NW 1023,8 10
22.10.2018 14:00:00 10,6 3,4 41 22 NW 1024,0 10
22.10.2018 13:00:00 11,1 3,4 37 20 NW 1023,6 10
22.10.2018 12:00:00 10,6 4,7 35 19 NW 1023,8 10
22.10.2018 11:00:00 10,5 5,7 29 16 WNW 1023,6 10
22.10.2018 10:00:00 9,8 6,9 28 15 WNW 1023,2 10
22.10.2018 09:00:00 9,5 7,1 22 12 WNW 1022,8 10
22.10.2018 08:00:00 9,1 7,1 21 11 WNW 1022,0 10
22.10.2018 07:00:00 10,3 8,1 22 12 NW 1021,4 10
22.10.2018 06:00:00 10,8 9,7 22 12 NW 1021,2 10
22.10.2018 05:00:00 11,1 10,6 24 13 WNW 1020,5 2,3
22.10.2018 04:00:00 11,4 10,6 22 12 WSW 1020,3 1,3
22.10.2018 03:00:00 12,2 10,4 22 12 WSW 1020,7 5
22.10.2018 02:00:00 12,1 10,3 24 13 WSW 1021,3 5
22.10.2018 01:00:00 12,5 10,4 26 14 SW 1021,6 6
22.10.2018 00:00:00 12,8 10,5 24 13 SW 1022,0 5
21.10.2018 23:00:00 12,8 10,5 28 15 SW 1022,1 6
21.10.2018 22:00:00 13,0 10,7 26 14 SW 1022,5 5
21.10.2018 21:00:00 12,4 11,0 22 12 SW 1022,9 5
21.10.2018 20:00:00 12,2 10,8 18 10 SW 1023,4 7
21.10.2018 19:00:00 11,6 10,7 18 10 SSW 1023,7 8
21.10.2018 18:00:00 11,5 10,4 15 8 SSW 1023,8 9
21.10.2018 17:00:00 11,5 9,9 18 10 SSW 1024,4 10
21.10.2018 16:00:00 11,9 9,8 21 11 SW 1024,8 10
21.10.2018 15:00:00 12,1 9,7 18 10 SW 1025,3 10
21.10.2018 14:00:00 12,4 9,2 22 12 SW 1025,6 10
21.10.2018 13:00:00 11,9 8,9 21 11 SW 1026,2 10
21.10.2018 12:00:00 11,2 8,9 21 11 WSW 1026,7 10
21.10.2018 11:00:00 11,6 8,8 15 8 SW 1027,0 10
21.10.2018 10:00:00 9,9 9,4 8 4 SSW 1026,8 10
21.10.2018 09:00:00 5,3 5,2 8 4 SW 1027,3 10
21.10.2018 08:00:00 3,3 3,0 8 4 SW 1026,9 0,2
21.10.2018 07:00:00 1,7 1,4 5 3 SW 1027,2 5
21.10.2018 06:00:00 3,6 3,5 4 2 S 1027,1 5
21.10.2018 05:00:00 3,9 3,6 4 2 S 1027,3 0,2
21.10.2018 04:00:00 2,8 2,5 0 0 N 1027,2 7
21.10.2018 03:00:00 1,5 1,2 4 2 SSW 1027,2 10
21.10.2018 02:00:00 2,9 2,6 0 0 N 1027,0 3,3
21.10.2018 01:00:00 2,6 2,3 4 2 W 1027,1 10
21.10.2018 00:00:00 3,0 2,7 0 0 N 1027,2 10
20.10.2018 23:00:00 3,7 3,4 4 2 WSW 1026,9 10
20.10.2018 22:00:00 4,9 4,3 8 4 W 1026,7 10
20.10.2018 21:00:00 7,0 6,1 9 5 W 1026,5 10
20.10.2018 20:00:00 7,3 5,8 11 6 WNW 1026,5 10
20.10.2018 19:00:00 8,6 6,7 9 5 WNW 1026,1 10
20.10.2018 18:00:00 9,1 7,1 13 7 WNW 1025,9 10
20.10.2018 17:00:00 11,3 7,6 24 13 WNW 1025,5 10
20.10.2018 16:00:00 12,0 8,1 18 10 WNW 1024,9 10
20.10.2018 15:00:00 12,3 8,9 18 10 WNW 1025,1 10
20.10.2018 14:00:00 11,8 9,0 15 8 WNW 1025,1 10
20.10.2018 13:00:00 11,3 9,2 13 7 W 1025,0 10
20.10.2018 12:00:00 11,0 9,4 15 8 W 1025,0 10
20.10.2018 11:00:00 10,5 8,9 16 9 WSW 1024,9 10
20.10.2018 10:00:00 9,0 8,2 11 6 SW 1024,7 10
20.10.2018 09:00:00 8,2 7,1 9 5 WSW 1024,6 10
20.10.2018 08:00:00 8,1 5,0 9 5 WSW 1024,8 10
20.10.2018 07:00:00 7,7 3,0 9 5 WSW 1024,5 10
20.10.2018 06:00:00 8,4 3,2 11 6 WSW 1024,2 10
20.10.2018 05:00:00 9,2 6,1 8 4 WSW 1024,2 10
20.10.2018 04:00:00 9,4 5,8 4 2 W 1024,2 10
20.10.2018 03:00:00 9,4 6,1 9 5 W 1024,6 10
20.10.2018 02:00:00 9,3 6,2 5 3 W 1024,5 10
20.10.2018 01:00:00 9,3 6,0 9 5 WSW 1024,7 10
20.10.2018 00:00:00 9,1 6,0 9 5 WSW 1024,7 10
19.10.2018 23:00:00 9,1 6,0 5 3 WSW 1024,8 10
19.10.2018 22:00:00 9,0 6,3 8 4 WSW 1024,9 10
19.10.2018 21:00:00 5,0 4,4 0 0 N 1025,1 10
19.10.2018 20:00:00 7,3 5,9 5 3 W 1024,6 10
19.10.2018 19:00:00 7,5 5,5 8 4 WSW 1024,5 10
19.10.2018 18:00:00 7,5 5,1 5 3 - 1024,2 10
19.10.2018 17:00:00 10,1 5,7 5 3 WNW 1024,2 10
19.10.2018 16:00:00 10,5 5,5 13 7 NW 1024,6 10
19.10.2018 15:00:00 11,7 4,9 9 5 NW 1024,9 10
19.10.2018 14:00:00 11,0 4,9 9 5 W 1025,3 10
19.10.2018 13:00:00 11,9 6,4 9 5 WNW 1025,2 10
19.10.2018 12:00:00 10,8 7,3 8 4 NW 1025,4 10
19.10.2018 11:00:00 9,7 8,6 2 1 - 1025,7 10
19.10.2018 10:00:00 6,9 6,8 0 0 N 1025,4 10
19.10.2018 09:00:00 2,1 1,8 4 2 N 1025,5 10
19.10.2018 08:00:00 -0,7 -0,8 0 0 N 1025,2 10
19.10.2018 07:00:00 -0,8 -0,9 4 2 - 1024,9 10
19.10.2018 06:00:00 -0,3 -0,4 4 2 NNW 1024,7 10
19.10.2018 05:00:00 0,0 -0,1 4 2 N 1024,7 10
19.10.2018 04:00:00 0,4 0,1 2 1 N 1024,8 10
19.10.2018 03:00:00 1,1 0,8 4 2 NW 1024,8 10
19.10.2018 02:00:00 1,9 1,6 4 2 NNW 1024,7 10
19.10.2018 01:00:00 4,1 3,8 5 3 NW 1024,8 10
19.10.2018 00:00:00 3,6 3,3 11 6 NNW 1024,8 10
18.10.2018 23:00:00 3,9 3,6 11 6 NNW 1024,7 10
18.10.2018 22:00:00 4,2 3,6 8 4 NW 1024,4 10
18.10.2018 21:00:00 5,4 4,5 13 7 NNW 1023,7 10
18.10.2018 20:00:00 7,1 4,9 13 7 NW 1023,4 10
18.10.2018 19:00:00 8,2 5,3 13 7 NW 1023,0 10
18.10.2018 18:00:00 9,8 6,1 16 9 NW 1022,3 10
18.10.2018 17:00:00 11,9 7,0 22 12 NW 1021,8 10
18.10.2018 16:00:00 13,7 7,9 24 13 NW 1021,5 10
18.10.2018 15:00:00 14,2 8,2 24 13 NNW 1020,9 10
18.10.2018 14:00:00 14,8 9,0 28 15 NNW 1021,0 10
18.10.2018 13:00:00 15,0 9,1 26 14 NNW 1021,1 10
18.10.2018 12:00:00 13,6 10,9 29 16 NNW 1020,9 10
18.10.2018 11:00:00 13,0 11,7 18 10 NNW 1020,6 6
18.10.2018 10:00:00 11,9 11,7 11 6 NNW 1020,3 1,2
18.10.2018 09:00:00 11,1 10,9 9 5 NNW 1020,0 0,1
18.10.2018 08:00:00 10,2 10,0 11 6 NNW 1019,3 0,1
18.10.2018 07:00:00 8,4 8,3 5 3 NNW 1018,9 -
18.10.2018 06:00:00 5,7 5,4 2 1 - 1018,9 0,2
18.10.2018 05:00:00 5,6 5,3 0 0 N 1019,0 -
18.10.2018 04:00:00 6,1 5,8 0 0 N 1019,0 -
18.10.2018 03:00:00 6,8 6,7 4 2 ESE 1019,1 0,1
18.10.2018 02:00:00 6,6 6,3 4 2 SE 1019,3 10
18.10.2018 01:00:00 6,8 6,5 5 3 ESE 1019,7 10
18.10.2018 00:00:00 7,5 7,2 5 3 SE 1019,9 10
17.10.2018 23:00:00 8,4 8,1 5 3 SE 1020,1 10
17.10.2018 22:00:00 10,0 9,2 5 3 SE 1019,9 5
17.10.2018 21:00:00 9,6 9,3 8 4 SE 1019,8 1,2
17.10.2018 20:00:00 9,1 8,6 5 3 SE 1019,8 4,0
17.10.2018 19:00:00 10,8 10,0 5 3 SE 1019,6 6
17.10.2018 18:00:00 13,3 10,7 5 3 SSE 1019,4 10
17.10.2018 17:00:00 15,4 11,0 5 3 SSE 1019,3 10
17.10.2018 16:00:00 16,9 10,7 9 5 SE 1019,4 10
17.10.2018 15:00:00 17,9 11,5 9 5 SE 1019,4 10
17.10.2018 14:00:00 18,3 12,5 11 6 SSE 1019,5 10
17.10.2018 13:00:00 18,2 13,1 11 6 SSE 1019,7 9
17.10.2018 12:00:00 17,6 13,1 9 5 SE 1020,0 7

tt = Température de l'air
td = dewpoint
ff = Vitesse du vent
dd = Direction du vent
ppp = reduced air pressure
vv = visibility

stations d'obs. à proximité